FW1999 Weather Reports


Display with metric or nautical units.
time (UTC)temp
F
wind
direction
speed
MPH
gust
MPH
rain 1hr
in
rain 24hr
in
rain mn
in
humidity
%
barometer
mb
20260504185458 71 79 6.0 13.0 0.00 0.00 0.00 38 1010.7
20260504184931 71 70 6.0 18.0 0.00 0.00 0.00 38 1010.7
20260504184417 71 69 6.0 18.0 0.00 0.00 0.00 37 1010.7
20260504184145 71 70 6.0 14.0 0.00 0.00 0.00 36 1010.8
20260504183419 71 37 6.0 14.0 0.00 0.00 0.00 35 1010.8
20260504183124 71 35 6.0 12.0 0.00 0.00 0.00 38 1011.0
20260504182353 71 38 5.0 11.0 0.00 0.00 0.00 36 1011.0
20260504181851 71 88 7.0 18.0 0.00 0.00 0.00 37 1011.1
20260504181346 70 66 8.0 18.0 0.00 0.00 0.00 37 1011.1
20260504180831 70 81 6.0 16.0 0.00 0.00 0.00 37 1011.1
20260504180322 70 72 6.0 10.0 0.00 0.00 0.00 40 1011.2
20260504175805 70 67 6.0 14.0 0.00 0.00 0.00 36 1011.4
20260504175307 70 74 6.0 14.0 0.00 0.00 0.00 39 1011.3
20260504174802 69 56 7.0 14.0 0.00 0.00 0.00 38 1011.4
20260504174233 70 58 6.0 14.0 0.00 0.00 0.00 38 1011.5
20260504173724 70 98 5.0 13.0 0.00 0.00 0.00 36 1011.4
20260504173229 69 43 6.0 15.0 0.00 0.00 0.00 38 1011.5
20260504172713 69 25 7.0 15.0 0.00 0.00 0.00 40 1011.5
20260504172211 69 29 6.0 14.0 0.00 0.00 0.00 40 1011.5
20260504171651 68 60 7.0 16.0 0.00 0.00 0.00 38 1011.7
20260504171148 68 30 7.0 16.0 0.00 0.00 0.00 36 1011.8
20260504170646 69 29 6.0 12.0 0.00 0.00 0.00 39 1011.8
20260504170411 69 47 5.0 13.0 0.00 0.00 0.00 38 1011.7
20260504150656 65 58 7.0 12.0 0.00 0.00 0.00 42 1013.3
20260504150155 64 84 5.0 12.0 0.00 0.00 0.00 42 1013.3
20260504140940 61 96 6.0 14.0 0.00 0.00 0.00 51 1013.6
20260504140700 61 67 6.0 14.0 0.00 0.00 0.00 51 1013.6
20260504130215 58 88 4.0 11.0 0.00 0.00 0.00 60 1014.0
20260504120237 52 54 5.0 12.0 0.00 0.00 0.00 66 1014.4
20260504110255 47 46 2.0 5.0 0.00 0.00 0.00 67 1014.7
20260504100111 45 54 1.0 5.0 0.00 0.00 0.00 60 1014.3
20260504081738 46 31 2.0 4.0 0.00 0.00 0.00 59 1014.2
20260504081503 46 63 2.0 4.0 0.00 0.00 0.00 59 1014.2
20260504080732 46 53 1.0 4.0 0.00 0.00 0.00 58 1014.2
20260504080206 46 80 1.0 3.0 0.00 0.00 0.00 58 1014.2
20260504050626 47 88 2.0 5.0 0.00 0.00 0.00 56 1014.1
20260504050123 47 66 2.0 4.0 0.00 0.00 0.00 56 1014.1
20260504045554 47 43 2.0 4.0 0.00 0.00 0.00 56 1014.1
20260504045036 48 58 1.0 4.0 0.00 0.00 0.00 56 1014.1
20260504044522 48 75 1.0 4.0 0.00 0.00 0.00 55 1014.0
20260504043959 48 77 2.0 4.0 0.00 0.00 0.00 55 1014.0
20260504043500 48 73 1.0 4.0 0.00 0.00 0.00 55 1014.0
20260504042949 48 52 1.0 4.0 0.00 0.00 0.00 55 1014.1
20260504042444 48 81 2.0 3.0 0.00 0.00 0.00 54 1013.9
20260504041919 48 79 1.0 4.0 0.00 0.00 0.00 54 1013.8
20260504041417 48 67 2.0 4.0 0.00 0.00 0.00 54 1013.7
20260504040848 48 78 2.0 5.0 0.00 0.00 0.00 54 1013.7
20260504040318 48 70 2.0 5.0 0.00 0.00 0.00 54 1013.7
20260504035821 49 70 2.0 5.0 0.00 0.00 0.00 54 1013.7
20260504035531 49 75 2.0 5.0 0.00 0.00 0.00 53 1013.6
20260504034802 49 63 2.0 6.0 0.00 0.00 0.00 53 1013.6
20260504034240 49 51 2.0 6.0 0.00 0.00 0.00 53 1013.5
20260504033649 49 56 2.0 6.0 0.00 0.00 0.00 52 1013.5
20260504033129 49 77 2.0 5.0 0.00 0.00 0.00 52 1013.5
20260504032631 50 73 2.0 4.0 0.00 0.00 0.00 51 1013.5
20260504032333 50 62 2.0 5.0 0.00 0.00 0.00 51 1013.4
20260504031557 50 58 2.0 5.0 0.00 0.00 0.00 51 1013.5
20260504031045 50 84 2.0 5.0 0.00 0.00 0.00 51 1013.4
20260504030520 50 58 2.0 5.0 0.00 0.00 0.00 50 1013.4
20260504030020 50 94 2.0 4.0 0.00 0.00 0.00 51 1013.4
20260504025457 50 82 2.0 5.0 0.00 0.00 0.00 50 1013.3
20260504024949 50 49 2.0 5.0 0.00 0.00 0.00 51 1013.4
20260504024447 50 71 2.0 5.0 0.00 0.00 0.00 50 1013.3
20260504023933 51 64 2.0 4.0 0.00 0.00 0.00 49 1013.4
20260504023436 51 56 2.0 3.0 0.00 0.00 0.00 48 1013.4
20260504023146 51 79 1.0 4.0 0.00 0.00 0.00 48 1013.5
20260504022415 51 78 2.0 4.0 0.00 0.00 0.00 48 1013.4
20260504021901 51 80 2.0 4.0 0.00 0.00 0.00 48 1013.4
20260504021333 51 65 1.0 4.0 0.00 0.00 0.00 47 1013.4
20260504020821 51 79 2.0 4.0 0.00 0.00 0.00 47 1013.3
20260504020317 52 86 2.0 5.0 0.00 0.00 0.00 47 1013.3
20260504015818 52 85 2.0 5.0 0.00 0.00 0.00 47 1013.3
20260504015309 52 70 2.0 4.0 0.00 0.00 0.00 47 1013.3
20260504015045 52 55 2.0 4.0 0.00 0.00 0.00 47 1013.3
20260504014254 52 86 2.0 5.0 0.00 0.00 0.00 46 1013.2
20260504013750 52 80 2.0 5.0 0.00 0.00 0.00 46 1013.1
20260504013249 53 49 2.0 4.0 0.00 0.00 0.00 45 1013.1
20260504012751 53 94 2.0 4.0 0.00 0.00 0.00 45 1013.0
20260504012218 53 84 2.0 4.0 0.00 0.00 0.00 45 1013.0
20260504011716 53 79 2.0 4.0 0.00 0.00 0.00 44 1012.8
20260504011218 53 88 2.0 3.0 0.00 0.00 0.00 44 1012.8
20260504010651 54 85 2.0 4.0 0.00 0.00 0.00 44 1012.6
20260504010127 54 87 2.0 6.0 0.00 0.00 0.00 43 1012.6
20260504005605 54 82 2.0 6.0 0.00 0.00 0.00 42 1012.6
20260504005311 54 79 2.0 4.0 0.00 0.00 0.00 43 1012.5
20260504004524 54 80 2.0 5.0 0.00 0.00 0.00 42 1012.5
20260504004025 54 84 2.0 5.0 0.00 0.00 0.00 41 1012.5
20260504003458 55 82 2.0 4.0 0.00 0.00 0.00 42 1012.5
20260504002955 55 87 2.0 3.0 0.00 0.00 0.00 41 1012.3
20260504002449 55 87 1.0 3.0 0.00 0.00 0.00 41 1012.3
20260504001930 55 83 1.0 3.0 0.00 0.00 0.00 40 1012.2
20260504001404 55 83 1.0 3.0 0.00 0.00 0.00 40 1012.2
20260504001359 56 89 2.0 3.0 0.00 0.00 0.00 40 1012.0
20260504000331 56 88 2.0 4.0 0.00 0.00 0.00 39 1011.9
20260503235831 56 82 2.0 4.0 0.00 0.00 0.00 39 1011.9
20260503235600 57 86 2.0 4.0 0.00 0.00 0.00 38 1011.9
20260503234829 57 83 2.0 4.0 0.00 0.00 0.00 38 1011.8
20260503234316 57 76 2.0 4.0 0.00 0.00 0.00 38 1011.8
20260503233800 58 92 3.0 4.0 0.00 0.00 0.00 37 1011.8
20260503233302 58 83 3.0 5.0 0.00 0.00 0.00 36 1011.7
20260503232740 58 90 3.0 5.0 0.00 0.00 0.00 35 1011.7
20260503232444 58 79 3.0 5.0 0.00 0.00 0.00 35 1011.6
20260503231646 58 79 3.0 6.0 0.00 0.00 0.00 35 1011.7
20260503231122 59 82 3.0 6.0 0.00 0.00 0.00 34 1011.6
20260503230555 59 86 3.0 6.0 0.00 0.00 0.00 36 1011.6
20260503230308 59 79 2.0 6.0 0.00 0.00 0.00 34 1011.5
20260503225536 59 81 2.0 6.0 0.00 0.00 0.00 35 1011.5
20260503225017 60 83 3.0 9.0 0.00 0.00 0.00 35 1011.6
20260503224451 60 65 3.0 9.0 0.00 0.00 0.00 34 1011.6
20260503223915 60 71 4.0 10.0 0.00 0.00 0.00 34 1011.5
20260503223417 60 86 4.0 10.0 0.00 0.00 0.00 32 1011.6
20260503222916 60 85 3.0 6.0 0.00 0.00 0.00 33 1011.5
20260503222414 60 86 3.0 7.0 0.00 0.00 0.00 33 1011.5
20260503221916 60 101 3.0 7.0 0.00 0.00 0.00 34 1011.6
20260503221415 60 91 4.0 11.0 0.00 0.00 0.00 33 1011.6
20260503220850 60 78 4.0 11.0 0.00 0.00 0.00 32 1011.5
20260503220320 60 84 3.0 8.0 0.00 0.00 0.00 32 1011.4
20260503215816 60 81 2.0 8.0 0.00 0.00 0.00 31 1011.5
20260503215524 61 96 2.0 7.0 0.00 0.00 0.00 31 1011.5
20260503214750 60 132 3.0 10.0 0.00 0.00 0.00 33 1011.5
20260503214250 61 106 2.0 10.0 0.00 0.00 0.00 31 1011.5
20260503213734 61 113 2.0 6.0 0.00 0.00 0.00 33 1011.4
20260503213506 61 88 1.0 6.0 0.00 0.00 0.00 34 1011.4
20260503212718 61 101 2.0 8.0 0.00 0.00 0.00 33 1011.4
20260503212206 60 72 2.0 8.0 0.00 0.00 0.00 35 1011.5
20260503211709 60 94 2.0 8.0 0.00 0.00 0.00 33 1011.4
20260503211151 60 75 3.0 8.0 0.00 0.00 0.00 33 1011.5
20260503210645 60 85 4.0 10.0 0.00 0.00 0.00 34 1011.6
20260503210418 60 21 4.0 12.0 0.00 0.00 0.00 34 1011.7
20260503205644 60 72 3.0 12.0 0.00 0.00 0.00 33 1011.5
20260503205116 60 45 2.0 7.0 0.00 0.00 0.00 34 1011.6
20260503204846 60 143 2.0 7.0 0.00 0.00 0.00 34 1011.5
20260503204116 60 105 3.0 7.0 0.00 0.00 0.00 34 1011.6
20260503203613 60 91 4.0 12.0 0.00 0.00 0.00 37 1011.6
20260503203046 59 72 5.0 12.0 0.00 0.00 0.00 32 1011.6
20260503202547 60 84 4.0 9.0 0.00 0.00 0.00 35 1011.5
20260503202050 59 66 3.0 9.0 0.00 0.00 0.00 36 1011.6
20260503202046 59 106 4.0 9.0 0.00 0.00 0.00 35 1011.6
20260503201029 60 117 2.0 7.0 0.00 0.00 0.00 33 1011.7
20260503200530 60 78 2.0 6.0 0.00 0.00 0.00 35 1011.8
20260503200001 60 129 3.0 6.0 0.00 0.00 0.00 35 1011.7
20260503195459 60 101 3.0 6.0 0.00 0.00 0.00 33 1011.8
20260503194953 60 68 2.0 6.0 0.00 0.00 0.00 35 1011.9
20260503194450 59 85 2.0 6.0 0.00 0.00 0.00 35 1011.8
20260503193953 59 113 2.0 4.0 0.00 0.00 0.00 34 1011.8
20260503193724 59 101 3.0 9.0 0.00 0.00 0.00 36 1011.8
20260503192944 60 89 5.0 14.0 0.00 0.00 0.00 34 1011.9
20260503192416 60 75 3.0 14.0 0.00 0.00 0.00 32 1011.9
20260503192133 60 7 3.0 9.0 0.00 0.00 0.00 39 1012.0
20260503191403 58 82 3.0 10.0 0.00 0.00 0.00 36 1012.0
20260503190858 58 53 3.0 10.0 0.00 0.00 0.00 37 1012.0
20260503190359 59 85 4.0 10.0 0.00 0.00 0.00 34 1012.0
20260503185856 58 66 5.0 13.0 0.00 0.00 0.00 36 1012.2